#timestamp,LO_Frequency,Hit,StdDev 
1455253215.9,286046995.1,P
1455253235.7,286046997.8,P
1455253255.5,286046998.0,N
1455253275.4,286046995.6,Y
1455253295.2,286047002.0,P
1455253315.0,286047002.4,N
1455253315.9,286047002.4,N
1455253335.8,286047002.7,N
1455253355.6,286047001.2,N
1455253375.4,286047002.0,N
1455253395.3,286047001.1,N
1455253415.1,286047000.5,N
1455253416.0,286047000.5,N
1455253435.8,286047000.6,N
1455253455.7,286046998.9,N
1455253475.5,286046998.4,N
1455253495.3,286046996.7,N
1455253515.2,286046998.1,N
1455253535.9,286047001.0,N
1455253555.7,286047002.8,N
1455253575.6,286047001.6,N
1455253595.4,286047005.4,N
1455253615.2,286047006.6,Y
1455253635.1,286047006.1,P
1455253636.0,286047006.1,N
1455253655.8,286047005.1,N
1455253675.6,286047003.1,N
1455253695.5,286047004.4,N
1455253715.3,286047007.7,Y
1455253735.1,286047002.6,P
1455253755.9,286047000.5,N
1455253775.7,286047000.4,N
1455253795.5,286047003.0,N
1455253815.4,286047003.2,N
1455253835.2,286047001.8,N
1455253855.0,286047001.1,N
1455253855.9,286047001.1,N
1455253875.7,286047001.1,N
1455253895.6,286047003.0,N
1455253915.4,286047004.0,Y
1455253935.2,286046998.7,P
1455253955.1,286046995.3,N
1455253956.0,286046995.3,N
1455253975.8,286046998.1,N
1455253995.6,286046996.7,N
1455254015.5,286046997.2,N
1455254035.3,286046995.7,N
1455254055.1,286046995.2,N
1455254075.9,286046997.8,N
1455254095.7,286046996.5,N
1455254115.5,286046996.9,N
1455254135.4,286046997.1,N
1455254155.2,286046998.3,N
1455254175.0,286046996.5,N
1455254175.9,286046996.5,N
1455254195.8,286046998.4,N
1455254215.6,286047001.2,N
1455254235.4,286047001.0,N
1455254255.3,286047001.6,N
1455254275.1,286047004.4,N
1455254276.0,286047004.4,N
1455254295.8,286047001.4,N
1455254315.6,286047007.6,N
1455254335.5,286047009.0,N
1455254355.3,286047008.6,N
1455254375.1,286047007.5,N
1455254395.9,286047005.6,N
1455254415.7,286047004.2,N
1455254435.5,286047003.9,N
1455254455.4,286047004.9,N
1455254475.2,286047007.5,N
1455254495.0,286047003.2,N
1455254495.9,286047003.2,N
1455254515.8,286047001.7,N
1455254535.6,286047003.8,N
1455254555.4,286047005.2,N
1455254575.3,286047002.9,N
1455254595.1,286047001.4,N
1455254596.0,286047001.4,N
1455254615.8,286047003.8,N
1455254635.7,286047004.9,N
1455254655.5,286047005.4,N
1455254675.3,286047007.4,N
1455254695.1,286047007.6,N
1455254715.9,286047004.4,N
1455254735.7,286047007.6,N
1455254755.5,286047004.6,N
1455254775.4,286047007.4,Y
1455254795.2,286046998.3,P
1455254815.0,286046999.2,N
1455254815.9,286046999.2,N
1455254835.8,286046995.3,N
1455254855.6,286046993.6,N
1455254875.4,286046997.7,N
1455254895.3,286046997.3,N
1455254915.1,286046995.5,N
1455254935.8,286046993.8,N
1455254955.7,286046990.6,Y
1455254975.5,286046992.1,P
1455254995.3,286046993.6,N
1455255015.2,286046994.8,N
1455255035.9,286046993.5,Y
1455255055.7,286047002.0,P
1455255075.6,286047005.0,N
1455255095.4,286047007.0,N
1455255115.2,286047003.1,N
1455255135.1,286047005.9,N
1455255136.0,286047005.9,N
1455255155.8,286047006.1,N
1455255175.6,286047007.0,N
1455255195.5,286047004.7,N
1455255215.3,286047006.0,N
1455255235.1,286047005.3,N
1455255255.9,286047005.9,N
1455255275.7,286047003.4,N
1455255295.5,286047002.4,N
1455255315.3,286047005.8,N
1455255335.2,286047003.6,N
1455255355.0,286046999.9,N
1455255355.9,286046999.9,N
1455255375.7,286047000.0,N
1455255395.6,286046998.3,N
1455255415.4,286046998.5,N
1455255435.2,286046996.6,N
1455255455.1,286046996.9,N
1455255456.0,286046996.9,N
1455255475.8,286046996.4,N
1455255495.6,286046993.3,N
1455255515.5,286046993.5,N
1455255535.3,286046995.1,N
1455255555.1,286046997.7,N
1455255575.9,286046999.7,N
1455255595.7,286046998.6,N
1455255615.5,286046999.1,N
1455255635.3,286047000.6,N
1455255655.2,286046999.8,N
1455255675.0,286047000.7,N
1455255675.9,286047000.7,N
1455255695.7,286046998.6,N
1455255715.6,286046998.9,N
1455255735.4,286046997.5,N
1455255755.2,286046997.0,N
1455255775.1,286046997.2,N
1455255776.0,286046997.2,N
1455255795.8,286046995.7,N
1455255815.6,286046998.0,N
1455255835.5,286047001.0,N
1455255855.3,286047001.1,N
1455255875.1,286046998.5,N
1455255895.9,286046998.7,N
1455255915.7,286047001.2,N
1455255935.5,286047002.1,N
1455255955.4,286047003.4,N
1455255975.2,286047002.1,N
1455255995.0,286047005.6,N
1455255995.9,286047005.6,N
1455256015.8,286047003.1,N
1455256035.6,286047000.9,N
1455256055.4,286047001.1,N
1455256075.2,286047000.4,N
1455256095.1,286047002.4,N
1455256096.0,286047002.4,N
1455256115.8,286047000.1,N
1455256135.6,286047000.6,N
1455256155.5,286047000.6,N
1455256175.3,286047002.6,N
1455256195.1,286047004.1,N
1455256215.9,286047000.1,N
1455256235.7,286047001.7,N
1455256255.5,286047000.0,N
1455256275.4,286047002.5,N
1455256295.2,286047000.1,N
1455256315.0,286047002.8,N
1455256315.9,286047002.8,N
1455256335.8,286047000.3,N
1455256355.6,286046998.8,N
1455256375.4,286046999.0,N
1455256395.3,286047000.0,N
1455256415.1,286047002.4,N
1455256416.0,286047002.4,N
1455256435.8,286047004.1,N
1455256455.7,286047002.6,N
1455256475.5,286046998.6,N
1455256495.3,286046998.7,N
1455256515.2,286046999.1,N
1455256535.9,286046997.4,N
1455256555.7,286046999.1,N
1455256575.5,286046999.5,N
1455256595.4,286046996.5,N
1455256615.2,286046995.1,N
1455256635.0,286046995.1,N
1455256635.9,286046995.1,N
1455256655.8,286046993.7,N
1455256675.6,286046998.0,N
1455256695.4,286046999.1,N
1455256715.3,286046999.9,N
1455256735.1,286047000.0,N
1455256736.0,286047000.0,N
1455256755.8,286046998.2,N
1455256775.7,286046995.4,N
1455256795.5,286046995.4,N
1455253215.8,286046998.1,N
1455253235.7,286047001.1,N
1455253255.5,286047002.0,N
1455253275.3,286047005.8,N
1455253295.2,286047006.6,N
1455253315.0,286047006.1,N
1455253315.9,286047006.1,N
1455253335.7,286047009.6,N
1455253355.6,286047012.2,N
1455253375.4,286047010.6,N
1455253395.2,286047009.7,N
1455253415.1,286047011.9,N
1455253416.0,286047011.9,N
1455253435.8,286047011.2,N
1455253455.6,286047009.8,N
1455253475.5,286047010.9,N
1455253495.3,286047013.9,N
1455253515.1,286047010.1,N
1455253535.8,286047010.6,N
1455253555.7,286047011.1,N
1455253575.5,286047012.4,N
1455253595.3,286047012.7,N
1455253615.2,286047014.7,N
1455253635.9,286047011.0,N
1455253655.7,286047015.1,N
1455253675.6,286047016.8,N
1455253695.4,286047014.1,N
1455253715.2,286047014.4,N
1455253735.1,286047015.3,N
1455253736.0,286047015.3,Y
1455253755.8,286047006.4,P
1455253775.6,286047006.2,P
1455253795.5,286047006.7,P
1455253815.3,286047005.1,Y
1455253835.1,286046998.8,P
1455253855.9,286046997.5,N
1455253875.7,286047000.5,N
1455253895.5,286047000.4,N
1455253915.4,286047002.1,N
1455253935.2,286047000.4,N
1455253955.0,286047002.4,N
1455253955.9,286047002.4,N
1455253975.8,286047003.9,N
1455253995.6,286047003.5,N
1455254015.4,286047002.5,N
1455254035.2,286047003.2,N
1455254055.1,286047004.2,N
1455254056.0,286047004.2,N
1455254075.8,286047002.3,N
1455254095.6,286046999.1,N
1455254115.5,286046995.4,N
1455254135.3,286046996.7,N
1455254155.1,286046996.7,N
1455254175.9,286047001.0,N
1455254195.7,286047000.1,N
1455254215.5,286046996.6,N
1455254235.4,286047002.6,N
1455254255.2,286047001.0,N
1455254275.0,286046996.9,N
1455254275.9,286046996.9,N
1455254295.8,286046997.8,N
1455254315.6,286047001.2,N
1455254335.4,286046997.7,N
1455254355.2,286046996.2,N
1455254375.1,286046995.8,N
1455254376.0,286046995.8,N
1455254395.8,286046995.8,N
1455254415.6,286046997.5,N
1455254435.5,286046995.2,N
1455254455.3,286046997.1,N
1455254475.1,286046997.1,N
1455254495.9,286046997.1,N
1455254515.7,286047001.2,N
1455254535.5,286046996.7,N
1455254555.4,286046995.1,N
1455254575.2,286046996.3,N
1455254595.0,286046993.7,N
1455254595.9,286046993.7,N
1455254615.8,286046994.5,N
1455254635.6,286046994.1,N
1455254655.4,286046992.2,Y
1455254675.3,286046996.1,P
1455254695.1,286046993.9,P
1455254696.0,286046993.9,P
1455254715.8,286046995.8,Y
1455254735.7,286047000.8,P
1455254755.5,286046998.2,N
1455254775.3,286047000.0,N
1455254795.2,286047002.4,N
1455254815.9,286047000.7,N
1455254835.7,286047000.1,N
1455254855.6,286047001.3,N
1455254875.4,286047000.0,N
1455254895.2,286047002.4,N
1455254915.0,286047002.0,N
1455254915.9,286047002.0,N
1455254935.8,286047000.1,N
1455254955.6,286047002.5,N
1455254975.4,286047000.7,N
1455254995.3,286047000.8,N
1455255015.1,286047000.5,N
1455255035.8,286047003.4,N
1455255055.7,286047001.7,N
1455255075.5,286046998.7,N
1455255095.3,286047002.8,N
1455255115.2,286047001.8,N
1455255135.9,286047000.5,N
1455255155.7,286046999.7,N
1455255175.6,286047001.1,N
1455255195.4,286046998.8,N
1455255215.2,286047000.8,N
1455255235.0,286046998.9,N
1455255235.9,286046998.9,N
1455255255.8,286046997.5,N
1455255275.6,286047000.2,N
1455255295.4,286047002.0,N
1455255315.3,286047001.7,N
1455255335.1,286047000.5,N
1455255355.8,286047002.7,N
1455255375.7,286046999.7,N
1455255395.5,286047000.2,N
1455255415.3,286047000.8,N
1455255435.2,286046999.7,N
1455255455.9,286047000.5,N
1455255475.7,286047000.1,N
1455255495.6,286047001.4,N
1455255515.4,286046999.9,N
1455255535.2,286047000.1,N
1455255555.0,286047002.2,N
1455255556.0,286047002.2,N
1455255575.8,286047002.2,N
1455255595.6,286047003.5,N
1455255615.4,286047003.9,N
1455255635.3,286047001.6,N
1455255655.1,286047003.3,N
1455255675.8,286047004.6,Y
1455255695.7,286047005.8,P
1455255715.5,286047003.8,N
1455255735.3,286047005.7,N
1455255755.2,286047002.9,N
1455255775.0,286047002.5,N
1455255775.9,286047002.5,N
1455255795.7,286047003.4,N
1455255815.6,286047003.8,N
1455255835.4,286047000.2,N
1455255855.2,286047001.1,N
1455255875.1,286047000.0,N
1455255876.0,286047000.0,N
1455255895.8,286046998.1,N
1455255915.6,286046999.9,N
1455255935.5,286047002.8,N
1455255955.3,286047000.3,N
1455255975.1,286047000.3,N
1455255995.8,286047000.7,N
1455256015.7,286046997.5,N
1455256035.5,286046997.6,N
1455256055.3,286046999.4,N
1455256075.2,286046998.1,N
1455256095.9,286047004.0,N
1455256115.7,286047002.5,N
1455256135.6,286047002.7,N
1455256155.4,286046999.0,N
1455256175.2,286046997.4,N
1455256195.1,286046994.3,N
1455256196.0,286046994.3,N
1455256215.8,286046994.4,N
1455256235.6,286046995.6,N
1455256255.5,286046996.2,N
1455256275.3,286046993.8,N
1455256295.1,286046991.9,N
1455256315.8,286046994.2,N
1455256335.7,286046993.6,N
1455256355.5,286046997.0,N
1455256375.3,286046998.2,N
1455256395.2,286047002.6,N
1455256415.9,286046999.9,N
1455256435.7,286047002.6,N
1455256455.6,286047003.6,N
1455256475.4,286047003.3,N
1455256495.2,286047005.1,N
1455256515.1,286047007.0,N
1455256516.0,286047007.0,N
1455256535.8,286047006.1,N
1455256555.6,286047008.7,N
1455256575.5,286047008.8,N
1455256595.3,286047006.6,N
1455256615.1,286047012.0,N
1455256635.8,286047012.2,N
1455256655.7,286047012.7,N
1455256675.5,286047011.0,N
1455256695.3,286047011.3,N
1455256715.2,286047012.0,N
1455256735.9,286047009.4,N
1455256755.7,286047012.3,N
1455256775.6,286047011.8,N
1455256795.4,286047012.1,N
1455253215.3,286046974.8,N
1455253235.2,286046976.8,N
1455253255.0,286046975.1,N
1455253255.9,286046975.1,N
1455253275.7,286046973.9,N
1455253295.6,286046971.8,N
1455253315.4,286046972.9,N
1455253335.2,286046974.0,N
1455253355.1,286046973.3,N
1455253356.0,286046973.3,N
1455253375.8,286046973.0,N
1455253395.6,286046971.7,N
1455253415.5,286046971.6,N
1455253435.3,286046971.7,N
1455253455.1,286046973.4,N
1455253475.9,286046973.5,Y
1455253495.7,286046994.3,P
1455253515.5,286046994.4,N
1455253535.4,286046996.4,N
1455253555.2,286046993.7,N
1455253575.0,286046992.8,N
1455253575.9,286046992.8,N
1455253595.8,286046992.1,N
1455253615.6,286046996.2,N
1455253635.4,286046997.3,N
1455253655.2,286046995.5,N
1455253675.1,286046993.0,N
1455253676.0,286046993.0,N
1455253695.8,286046990.3,N
1455253715.6,286046993.9,N
1455253735.5,286046994.5,N
1455253755.3,286046991.8,N
1455253775.1,286046992.8,N
1455253795.9,286046994.4,N
1455253815.7,286046994.1,N
1455253835.5,286046995.5,N
1455253855.4,286046999.4,N
1455253875.2,286047001.1,N
1455253895.0,286046999.1,N
1455253895.9,286046999.1,N
1455253915.8,286047001.7,N
1455253935.6,286047004.5,N
1455253955.4,286047006.5,N
1455253975.2,286047006.3,N
1455253995.1,286047010.2,N
1455253996.0,286047010.2,N
1455254015.8,286047008.1,N
1455254035.6,286047010.2,N
1455254055.5,286047008.8,N
1455254075.3,286047009.0,N
1455254095.1,286047009.7,N
1455254115.9,286047014.0,N
1455254135.7,286047009.3,N
1455254155.5,286047008.1,N
1455254175.4,286047009.0,N
1455254195.2,286047008.8,N
1455254215.0,286047008.2,N
1455254215.9,286047008.2,N
1455254235.8,286047007.6,N
1455254255.6,286047006.0,N
1455254275.4,286047005.8,N
1455254295.2,286047004.4,N
1455254315.1,286047000.8,N
1455254316.0,286047000.8,N
1455254335.8,286046997.6,N
1455254355.6,286046995.9,N
1455254375.5,286046998.0,N
1455254395.3,286046996.3,N
1455254415.1,286046991.7,N
1455254435.9,286046992.3,N
1455254455.7,286046992.6,N
1455254475.5,286046993.1,N
1455254495.4,286046993.3,N
1455254515.2,286046993.5,N
1455254535.0,286046992.2,N
1455254535.9,286046992.2,N
1455254555.8,286046991.8,N
1455254575.6,286046988.9,N
1455254595.4,286046990.7,N
1455254615.3,286046993.0,N
1455254635.1,286046989.2,N
1455254636.0,286046989.2,N
1455254655.8,286046989.2,N
1455254675.7,286046990.2,N
1455254695.5,286046990.5,N
1455254715.3,286046992.5,N
1455254735.1,286046992.0,N
1455254755.9,286046993.0,N
1455254775.7,286046996.4,N
1455254795.5,286046995.7,N
1455254815.4,286046996.4,N
1455254835.2,286046993.3,N
1455254855.0,286046994.7,N
1455254855.9,286046994.7,N
1455254875.8,286046990.1,Y
1455254895.6,286047001.0,P
1455254915.4,286047002.1,N
1455254935.3,286047001.8,N
1455254955.1,286047003.3,N
1455254975.8,286047001.4,N
1455254995.7,286047002.4,N
1455255015.5,286047002.3,N
1455255035.3,286047002.6,N
1455255055.2,286047004.2,N
1455255075.9,286047002.1,N
1455255095.7,286047001.7,N
1455255115.6,286047001.7,N
1455255135.4,286046998.1,N
1455255155.2,286046997.1,N
1455255175.0,286046999.0,N
1455255176.0,286046999.0,N
1455255195.8,286046998.4,N
1455255215.6,286047000.7,N
1455255235.4,286047001.9,N
1455255255.3,286047003.2,N
1455255275.1,286047004.0,N
1455255295.8,286047001.8,N
1455255315.7,286047003.6,N
1455255335.5,286047001.9,N
1455255355.3,286047001.5,N
1455255375.2,286047001.8,N
1455255395.9,286047004.4,N
1455255415.7,286047004.3,N
1455255435.6,286047003.8,N
1455255455.4,286047003.3,N
1455255475.2,286047003.6,N
1455255495.0,286047001.7,N
1455255495.9,286047001.7,N
1455255515.8,286047005.8,Y
1455255535.6,286047001.8,P
1455255555.4,286046999.9,P
1455255575.3,286047002.6,N
1455255595.1,286046998.1,N
1455255615.8,286047001.1,N
1455255635.7,286046995.2,Y
1455255655.5,286046997.5,P
1455255675.3,286046995.3,N
1455255695.2,286046997.2,N
1455255715.9,286046996.1,N
1455255735.7,286046997.8,N
1455255755.6,286046992.4,Y
1455255775.4,286046993.5,P
1455255795.2,286046990.6,P
1455255815.1,286046991.0,P
1455255816.0,286046991.0,Y
1455255835.8,286046996.6,P
1455255855.6,286046999.0,N
1455255875.5,286047004.1,N
1455255895.3,286047000.1,N
1455255915.1,286046997.3,N
1455255935.9,286046995.0,N
1455255955.7,286046995.8,N
1455255975.5,286046996.6,N
1455255995.4,286046995.4,N
1455256015.2,286046994.5,N
1455256035.0,286046994.1,N
1455256035.9,286046994.1,N
1455256055.8,286046992.5,N
1455256075.6,286046994.0,N
1455256095.4,286046992.5,N
1455256115.2,286046994.2,N
1455256135.1,286046992.0,N
1455256136.0,286046992.0,N
1455256155.8,286046991.1,N
1455256175.6,286046989.3,Y
1455256195.5,286047000.8,P
1455256215.3,286046999.6,N
1455256235.1,286046997.4,N
1455256255.9,286046997.0,N
1455256275.7,286046998.1,N
1455256295.5,286047004.4,N
1455256315.4,286047002.0,N
1455256335.2,286047002.7,N
1455256355.0,286046999.9,N
1455256355.9,286046999.9,N
1455256375.8,286046998.6,N
1455256395.6,286046996.8,N
1455256415.4,286046997.0,N
1455256435.2,286046997.6,N
1455256455.1,286046995.9,N
1455256456.0,286046995.9,N
1455256475.8,286046996.1,N
1455256495.6,286046996.6,N
1455256515.5,286046999.3,N
1455256535.3,286046996.7,N
1455256555.1,286046993.9,N
1455256575.9,286046994.0,N
1455256595.7,286046994.2,N
1455256615.5,286046992.7,N
1455256635.4,286046991.8,N
1455256655.2,286046994.1,N
1455256675.0,286046993.9,N
1455256675.9,286046993.9,N
1455256695.8,286046998.4,N
1455256715.6,286046997.0,N
1455256735.4,286046995.0,N
1455256755.3,286046997.2,N
1455256775.1,286046997.1,N
1455256776.0,286046997.1,N
1455256795.8,286046996.9,N
